Wind_Speed
17 16 13 12 10 10 12 12 12 13 16 20 24 27 30 33 35 34 38 39 40 40 41 40 41 41 39 39 40 40 41 40 39 38 36 36 36 37 38 39 39 40 40
16 14 13 14 13 13 12 13 13 17 20 23 27 30 35 38 39 39 40 39 39 41 41 43 44 44 44 44 44 42 39 37 37 38 39 40 41 42 43 44 45 47 47
13 11 10 12 12 13 14 14 17 21 25 28 31 35 38 40 39 41 42 41 40 43 44 45 46 46 47 47 45 43 42 40 41 42 43 45 47 49 50 52 53 53 52
8 12 13 13 13 15 16 17 22 25 28 29 32 36 39 37 40 42 42 42 44 43 44 45 46 48 47 46 45 46 45 45 47 49 50 51 52 55 56 57 58 60 62
10 12 13 14 15 16 19 22 26 29 30 31 34 37 39 40 41 40 43 46 47 49 47 46 48 49 47 47 47 47 49 51 54 56 57 58 60 61 63 65 66 66 67
13 16 15 17 17 20 23 26 30 33 32 32 36 39 40 41 43 43 46 48 48 50 51 49 48 46 47 48 49 51 55 57 59 61 63 66 67 69 70 71 71 73 74
15 16 17 18 22 25 28 31 36 35 30 33 39 44 48 46 41 43 52 54 55 55 52 49 48 51 51 51 52 57 61 64 65 67 70 72 75 77 79 80 81 82 82
17 17 18 23 26 31 35 37 39 38 36 36 39 45 52 54 54 52 56 62 61 59 56 52 51 49 52 58 61 62 64 68 72 74 77 79 80 82 85 86 87 87 87
19 20 22 27 28 33 37 38 37 37 39 39 45 52 56 56 58 64 64 69 66 61 57 56 58 58 61 66 68 69 69 72 77 80 83 85 88 90 92 95 95 93 91
25 25 27 30 31 34 34 34 37 39 43 46 47 54 62 56 55 58 74 75 70 62 59 58 58 61 68 71 73 75 77 79 82 85 88 91 94 95 92 85 81 77 77
29 32 32 32 33 36 38 38 39 41 43 44 54 60 60 55 56 64 73 68 70 67 63 59 63 67 72 77 80 80 82 84 87 90 93 93 90 82 73 71 71 70 69
35 38 36 33 36 41 41 47 38 42 49 45 53 56 55 54 73 76 77 68 65 65 64 65 69 74 78 80 82 84 84 86 89 91 89 83 73 68 70 70 66 61 59
32 35 39 38 41 35 40 40 44 48 45 55 50 52 55 69 75 78 73 68 65 68 71 73 76 80 80 82 83 85 85 86 86 82 75 66 64 68 69 61 57 55 54
40 35 37 33 34 38 41 44 49 49 48 51 51 55 68 77 74 72 69 68 70 76 76 76 83 84 84 85 85 85 85 81 75 71 65 61 63 67 60 56 55 53 52
40 34 33 35 38 42 43 43 46 50 52 51 63 72 77 75 73 72 68 69 73 75 77 83 84 86 86 86 85 84 80 72 68 64 58 59 63 63 56 53 53 52 50
34 35 35 39 41 42 42 37 46 49 59 67 72 74 74 74 72 69 68 72 73 77 78 83 85 87 87 86 84 78 69 66 62 58 56 58 61 58 53 52 49 48 48
40 39 40 43 45 46 46 50 56 60 64 68 69 71 70 71 71 69 73 74 77 81 82 82 86 88 87 85 82 72 63 58 60 56 55 58 60 55 51 50 46 44 45
42 42 44 45 47 49 50 52 56 57 64 66 68 70 73 65 65 73 75 80 81 83 84 85 85 86 84 79 71 63 57 57 57 57 55 57 58 52 51 49 45 43 40
44 45 46 47 48 47 51 55 56 57 59 67 71 74 70 66 74 76 79 81 84 84 86 88 86 83 80 71 62 57 54 55 56 56 55 57 57 51 48 47 41 39 37
45 45 47 50 52 52 55 55 58 58 56 67 69 69 72 78 80 80 81 83 83 85 87 87 84 78 72 62 57 54 52 55 55 54 55 57 55 51 47 43 38 38 34
45 47 50 53 54 56 57 59 60 62 60 65 70 69 72 75 76 79 81 81 84 85 85 82 78 71 61 55 56 54 54 54 53 55 55 56 53 49 47 44 37 33 30
48 51 54 55 57 58 59 61 62 65 65 66 67 69 72 74 77 79 80 83 84 83 81 75 68 61 57 54 55 55 54 54 52 55 56 54 51 46 44 43 38 33 29
52 54 57 58 59 61 62 63 64 65 65 65 66 69 73 77 80 83 85 85 83 81 79 69 63 56 58 56 57 56 56 55 55 54 55 52 48 45 42 41 38 32 27
55 57 58 60 61 62 62 63 64 64 66 67 71 74 78 80 83 85 86 86 86 83 74 65 60 56 58 55 57 57 56 55 54 53 53 49 44 42 39 39 38 33 27
56 58 60 61 62 62 62 63 65 67 68 71 73 77 81 85 86 87 87 87 84 80 72 64 59 59 58 57 57 58 56 56 53 51 49 46 41 40 38 35 38 33 26
58 61 62 63 63 63 63 64 66 67 70 73 76 81 85 87 87 86 87 85 83 76 73 72 65 59 57 57 56 56 55 53 51 48 44 41 38 39 35 34 34 35 28
Wind_Direction
166 153 181 204 224 238 232 237 262 286 299 305 312 317 314 319 320 318 322 316 313 311 308 304 300 299 297 295 293 291 289 288 289 290 289 288 287 287 286 285 281 279 276
158 172 194 220 229 219 229 256 279 290 302 310 310 314 318 319 321 318 313 312 308 306 305 300 299 299 298 297 293 289 287 286 286 287 288 287 286 285 284 283 282 282 280
182 201 216 212 210 230 253 272 291 300 307 310 312 316 314 319 315 314 309 308 307 308 305 302 300 299 297 294 293 290 290 287 288 287 286 285 285 283 282 282 281 279 277
205 211 202 212 229 250 269 291 295 302 304 308 315 312 313 316 315 309 306 309 311 308 305 304 301 300 298 294 291 290 289 288 288 288 287 285 283 282 280 277 276 275 274
226 210 217 231 247 270 283 290 293 299 302 309 312 311 313 314 312 308 306 304 307 310 309 307 305 303 299 296 293 290 289 289 290 290 288 287 285 283 281 279 275 271 268
225 220 231 250 266 274 282 289 294 300 302 310 310 314 315 312 310 317 316 313 312 312 312 310 306 302 298 294 294 298 297 295 294 293 292 291 290 288 286 283 279 276 273
227 232 246 261 272 279 284 289 294 297 297 308 317 314 314 306 304 308 320 318 315 313 311 309 306 305 302 297 295 298 299 299 297 295 293 293 293 292 291 288 285 282 278
233 245 261 273 278 284 287 290 289 290 294 293 302 306 313 311 309 309 317 318 316 313 311 307 304 305 308 309 305 302 301 302 301 300 299 297 294 292 289 287 283 279 275
245 256 267 277 284 286 285 283 286 290 295 294 302 309 311 312 313 313 314 316 314 312 309 307 302 300 305 308 307 305 305 303 302 301 301 300 299 297 294 291 288 284 278
251 260 267 274 280 285 289 289 290 296 299 299 304 309 312 303 307 301 309 309 311 310 309 309 306 306 307 307 308 308 308 306 305 305 305 304 302 300 299 294 287 281 274
262 267 270 275 284 289 297 295 294 297 302 302 308 310 308 294 298 303 310 309 309 309 309 307 308 309 309 309 309 310 309 309 309 308 306 306 306 302 296 291 288 284 278
271 271 273 276 284 292 298 300 294 301 298 299 305 303 294 294 305 304 307 305 307 307 308 311 312 311 310 311 311 311 312 311 311 310 310 309 304 300 300 297 292 286 281
287 284 284 278 282 297 301 298 290 293 289 290 298 291 292 298 299 306 305 306 307 308 308 307 309 311 312 312 312 312 312 312 312 312 310 306 302 305 304 298 294 290 284
292 276 292 292 286 290 298 292 301 282 289 286 292 291 295 303 301 302 303 304 306 311 309 308 312 312 312 312 312 312 313 313 310 310 309 304 306 308 304 299 296 292 288
296 286 291 299 291 290 296 302 304 283 287 281 290 296 298 300 301 303 302 306 306 308 307 311 311 311 312 312 312 313 314 310 308 310 307 307 310 310 305 301 299 294 290
305 297 296 294 295 293 295 284 286 282 287 289 294 295 296 298 301 301 303 305 306 307 308 309 309 309 310 312 313 315 311 306 307 308 308 309 312 310 305 305 299 294 290
300 299 300 301 300 298 295 283 288 290 291 292 295 294 297 300 300 299 302 306 306 307 307 308 309 310 311 313 315 313 308 306 309 308 310 312 314 311 307 306 302 297 291
299 300 301 299 298 297 294 292 292 293 294 297 297 298 300 299 301 302 302 303 307 306 307 309 309 309 312 314 313 310 307 307 309 309 311 314 316 311 310 310 305 301 292
297 297 297 298 300 295 293 296 296 298 300 295 293 302 302 298 303 304 304 306 306 306 308 309 310 311 312 313 309 308 306 308 310 309 311 315 316 312 312 311 307 302 293
295 295 297 299 299 299 300 301 300 298 294 282 291 297 295 300 303 304 305 305 306 308 308 309 311 311 312 310 307 307 306 308 309 309 314 316 315 313 313 311 310 304 292
292 296 298 298 301 301 301 300 301 299 297 289 292 295 297 299 303 304 305 306 307 308 309 310 311 311 310 307 306 307 308 308 310 310 315 315 314 313 314 314 312 305 290
295 297 298 299 300 300 301 301 300 300 299 298 298 299 301 303 304 305 305 307 308 308 308 308 309 306 306 304 305 306 306 308 309 312 314 314 311 312 313 312 312 308 294
297 297 298 299 300 301 302 302 302 302 302 301 301 302 305 306 306 308 308 309 308 307 307 308 305 303 300 304 304 304 306 307 309 311 312 312 309 311 312 311 310 310 295
297 297 298 299 301 303 304 304 304 303 303 303 303 304 307 308 309 308 308 309 308 307 307 305 301 296 295 299 300 301 304 304 307 309 309 309 306 309 311 311 309 311 297
297 297 298 301 304 305 304 304 305 304 302 301 304 307 309 311 310 308 307 308 307 307 305 300 295 294 294 295 297 298 300 301 304 306 306 305 305 308 309 310 307 309 298
298 299 302 304 305 305 306 305 302 301 303 306 309 310 310 309 309 309 308 307 306 306 300 298 296 292 291 292 292 294 295 298 301 303 300 301 302 306 308 311 308 307 302
Height
5781 5785 5791 5796 5799 5800 5802 5804 5804 5803 5802 5802 5801 5798 5799 5796 5793 5791 5789 5785 5782 5779 5777 5774 5772 5769 5765 5762 5759 5757 5754 5751 5748 5747 5746 5745 5744 5743 5742 5742 5741 5741 5741
5783 5785 5790 5794 5797 5799 5799 5802 5800 5800 5798 5796 5797 5795 5793 5791 5789 5786 5783 5780 5777 5773 5770 5767 5763 5760 5756 5753 5751 5748 5746 5743 5741 5738 5736 5735 5734 5732 5732 5733 5732 5731 5731
5784 5786 5788 5791 5794 5796 5797 5796 5795 5795 5794 5793 5792 5790 5789 5786 5784 5780 5777 5775 5771 5766 5762 5758 5755 5751 5747 5744 5741 5738 5736 5734 5732 5730 5728 5726 5724 5723 5721 5720 5718 5718 5719
5784 5787 5787 5790 5792 5794 5794 5791 5792 5790 5790 5788 5786 5785 5783 5780 5777 5774 5771 5766 5762 5759 5755 5750 5746 5742 5739 5735 5732 5729 5726 5724 5722 5719 5717 5715 5713 5711 5709 5708 5707 5705 5704
5784 5786 5788 5789 5790 5790 5790 5788 5788 5786 5785 5783 5782 5779 5776 5774 5771 5768 5764 5759 5754 5749 5743 5742 5736 5733 5729 5725 5722 5719 5715 5712 5709 5706 5703 5701 5698 5696 5694 5691 5690 5689 5688
5783 5785 5785 5787 5786 5786 5786 5784 5783 5781 5780 5779 5776 5773 5770 5767 5763 5759 5754 5749 5744 5738 5732 5727 5724 5723 5720 5715 5711 5708 5703 5698 5694 5690 5686 5682 5679 5676 5673 5670 5669 5667 5665
5781 5782 5782 5782 5783 5783 5779 5778 5777 5775 5773 5772 5768 5765 5761 5761 5756 5749 5743 5736 5731 5726 5722 5716 5712 5707 5704 5702 5700 5695 5690 5682 5678 5673 5667 5663 5658 5653 5648 5644 5641 5639 5637
5779 5779 5778 5778 5777 5776 5774 5773 5770 5768 5766 5763 5760 5755 5750 5744 5740 5738 5730 5725 5720 5713 5708 5705 5701 5696 5691 5685 5682 5679 5675 5665 5658 5652 5646 5641 5636 5629 5623 5617 5612 5608 5605
5774 5773 5773 5773 5771 5769 5769 5766 5762 5760 5758 5755 5751 5745 5738 5732 5724 5716 5713 5712 5707 5702 5697 5692 5687 5683 5678 5672 5664 5659 5657 5648 5639 5632 5623 5615 5607 5598 5590 5581 5574 5569 5566
5770 5769 5768 5767 5766 5763 5761 5757 5754 5752 5748 5744 5740 5735 5728 5721 5715 5708 5702 5699 5696 5692 5686 5680 5673 5667 5661 5654 5648 5642 5634 5627 5618 5607 5597 5587 5576 5566 5555 5545 5538 5533 5530
5766 5765 5761 5761 5757 5754 5751 5749 5746 5742 5737 5733 5727 5721 5716 5712 5707 5700 5692 5681 5678 5673 5670 5666 5661 5654 5645 5636 5628 5622 5613 5603 5594 5581 5569 5559 5548 5538 5528 5520 5513 5508 5504
5758 5756 5754 5752 5750 5746 5744 5739 5736 5732 5727 5723 5718 5711 5706 5700 5695 5687 5682 5675 5667 5660 5653 5648 5642 5635 5628 5619 5609 5599 5590 5578 5569 5558 5544 5534 5524 5515 5506 5497 5489 5484 5481
5750 5747 5746 5743 5740 5738 5737 5733 5729 5725 5721 5715 5709 5702 5696 5691 5683 5675 5667 5661 5654 5645 5638 5632 5626 5620 5609 5600 5589 5580 5570 5559 5548 5537 5524 5514 5506 5497 5486 5477 5470 5465 5462
5741 5734 5740 5735 5734 5731 5728 5723 5719 5712 5710 5705 5697 5692 5682 5677 5671 5664 5655 5647 5640 5632 5623 5614 5604 5598 5592 5583 5573 5561 5548 5537 5528 5519 5509 5499 5490 5480 5470 5461 5454 5449 5446
5735 5733 5730 5727 5725 5722 5719 5714 5710 5706 5699 5694 5687 5679 5671 5663 5657 5650 5643 5635 5626 5619 5610 5598 5587 5577 5571 5562 5551 5540 5530 5519 5511 5502 5493 5483 5474 5464 5454 5447 5441 5435 5431
5728 5726 5722 5719 5716 5712 5708 5703 5700 5695 5690 5682 5674 5666 5658 5651 5644 5636 5628 5620 5612 5604 5596 5583 5572 5562 5552 5542 5530 5521 5510 5502 5495 5488 5480 5471 5462 5451 5442 5435 5428 5422 5417
5720 5717 5713 5709 5705 5701 5698 5694 5689 5682 5676 5668 5661 5650 5645 5637 5631 5623 5614 5606 5597 5585 5577 5572 5555 5543 5532 5521 5512 5503 5495 5487 5479 5472 5466 5457 5448 5438 5429 5422 5416 5410 5404
5711 5707 5703 5700 5696 5690 5685 5681 5675 5670 5662 5654 5643 5635 5630 5623 5616 5609 5600 5590 5579 5570 5560 5552 5542 5526 5514 5504 5495 5487 5481 5473 5466 5458 5453 5444 5436 5426 5417 5410 5404 5398 5393
5702 5698 5694 5689 5684 5679 5674 5668 5661 5656 5645 5637 5629 5622 5616 5608 5600 5591 5582 5573 5563 5552 5540 5528 5521 5508 5498 5489 5481 5474 5467 5461 5453 5446 5440 5432 5424 5415 5408 5399 5392 5386 5381
5693 5688 5683 5678 5673 5667 5661 5655 5648 5641 5635 5625 5619 5612 5604 5594 5584 5575 5566 5556 5545 5533 5521 5508 5498 5491 5482 5474 5466 5461 5456 5448 5442 5434 5427 5419 5411 5403 5397 5391 5384 5377 5373
5683 5677 5671 5666 5660 5655 5648 5641 5635 5628 5621 5614 5607 5599 5590 5581 5572 5561 5549 5540 5526 5513 5501 5490 5480 5473 5468 5460 5452 5447 5442 5437 5430 5422 5416 5408 5399 5393 5386 5379 5374 5370 5365
5671 5666 5660 5654 5648 5641 5635 5628 5621 5614 5607 5599 5593 5584 5574 5565 5555 5544 5534 5522 5509 5499 5489 5478 5468 5459 5454 5447 5442 5436 5431 5425 5421 5410 5404 5399 5389 5384 5378 5370 5366 5361 5357
5659 5654 5647 5641 5635 5629 5622 5615 5608 5600 5593 5586 5577 5568 5559 5548 5535 5523 5513 5505 5497 5483 5470 5464 5455 5450 5439 5434 5429 5424 5418 5413 5408 5401 5393 5389 5380 5375 5369 5362 5357 5354 5349
5647 5641 5635 5628 5621 5614 5608 5599 5592 5586 5579 5571 5561 5551 5541 5530 5518 5503 5490 5481 5471 5465 5460 5449 5440 5436 5428 5424 5416 5412 5407 5401 5397 5389 5381 5378 5372 5367 5362 5354 5349 5346 5342
5634 5627 5621 5614 5606 5598 5591 5584 5576 5569 5562 5555 5546 5534 5521 5510 5499 5486 5470 5460 5453 5443 5433 5432 5428 5420 5416 5409 5403 5397 5394 5389 5386 5380 5371 5367 5363 5358 5353 5348 5340 5338 5335
5620 5613 5606 5599 5591 5582 5575 5567 5560 5554 5548 5539 5529 5516 5503 5490 5478 5467 5451 5438 5429 5426 5413 5403 5404 5404 5399 5395 5392 5385 5381 5377 5372 5369 5362 5358 5354 5349 5346 5340 5334 5329 5327